Location: Newark
(41.8083°N, 72.2500°W)
Time: 19:29:23
(UTC+00:00)

Courier 1B - Pass Details

Date: 09 December 2021
Orbit: 962 x 1209 km, 28.3° (Epoch: 19 January)

Event Time Altitude Azimuth Distance (km) Brightness Sun altitude
Rises 21:59:13 0° 254° (WSW) 4,082 13.0 -7.6°
Reaches altitude 10° 22:02:35 10° 243° (WSW) 3,094 11.9 -8.2°
Maximum altitude 22:08:43 27° 189° (S) 2,057 9.6 -9.3°
Drops below altitude 10° 22:14:36 10° 136° (SE) 2,960 9.8 -10.3°
Sets 22:17:45 0° 124° (SE) 3,875 10.3 -10.8°
